| time (UTC) | temp C | wind direction | speed KPH | gust KPH | rain 1hr cm | rain 24hr cm | rain mn cm | humidity % | barometer mb |
| 20260510181804 | 20 | 7 | 0.0 | 1.6 | 0.00 | 0.03 | 0.00 | 40 | 1018.0 |
| 20260510181303 | 19 | 266 | 1.6 | 19.3 | 0.00 | 0.03 | 0.00 | 43 | 1018.0 |
| 20260510174803 | 18 | 328 | 0.0 | 1.6 | 0.00 | 0.03 | 0.00 | 59 | 1018.4 |
| 20260510174303 | 17 | 39 | 0.0 | 0.0 | 0.00 | 0.03 | 0.00 | 51 | 1018.4 |
| 20260510173804 | 17 | 353 | 0.0 | 0.0 | 0.00 | 0.03 | 0.00 | 51 | 1018.4 |
| 20260510173304 | 16 | 289 | 0.0 | 3.2 | 0.00 | 0.03 | 0.00 | 55 | 1018.5 |
| 20260510171804 | 16 | 269 | 0.0 | 0.0 | 0.00 | 0.03 | 0.00 | 53 | 1018.5 |
| 20260510171303 | 16 | 268 | 0.0 | 1.6 | 0.00 | 0.03 | 0.00 | 52 | 1018.6 |
| 20260510170803 | 16 | 337 | 0.0 | 3.2 | 0.00 | 0.03 | 0.00 | 53 | 1018.6 |
| 20260510170303 | 16 | 295 | 0.0 | 0.0 | 0.00 | 0.03 | 0.00 | 50 | 1018.5 |
| 20260510164803 | 17 | 308 | 0.0 | 0.0 | 0.00 | 0.03 | 0.00 | 51 | 1018.5 |
| 20260510163804 | 17 | 297 | 0.0 | 1.6 | 0.00 | 0.03 | 0.00 | 54 | 1018.5 |
| 20260510163303 | 16 | 318 | 0.0 | 16.1 | 0.00 | 0.03 | 0.00 | 52 | 1018.5 |
| 20260510161804 | 15 | 285 | 0.0 | 3.2 | 0.00 | 0.03 | 0.00 | 57 | 1018.5 |
| 20260510160803 | 15 | 32 | 0.0 | 0.0 | 0.00 | 0.03 | 0.00 | 60 | 1018.4 |
| 20260510160303 | 15 | 6 | 0.0 | 0.0 | 0.00 | 0.03 | 0.00 | 58 | 1018.4 |
| 20260510154804 | 15 | 343 | 0.0 | 0.0 | 0.00 | 0.03 | 0.00 | 51 | 1018.4 |
| 20260510154303 | 16 | 334 | 0.0 | 1.6 | 0.00 | 0.03 | 0.00 | 54 | 1018.3 |
| 20260510153803 | 16 | 346 | 0.0 | 1.6 | 0.00 | 0.03 | 0.00 | 50 | 1018.3 |
| 20260510151803 | 15 | 334 | 0.0 | 0.0 | 0.00 | 0.03 | 0.00 | 53 | 1018.5 |
| 20260510151303 | 15 | 9 | 0.0 | 0.0 | 0.00 | 0.03 | 0.00 | 57 | 1018.5 |
| 20260510150803 | 15 | 346 | 0.0 | 0.0 | 0.00 | 0.03 | 0.00 | 54 | 1018.6 |
| 20260510144803 | 16 | 17 | 0.0 | 0.0 | 0.00 | 0.03 | 0.00 | 51 | 1018.2 |
| 20260510144304 | 16 | 44 | 0.0 | 0.0 | 0.00 | 0.03 | 0.00 | 52 | 1018.2 |
| 20260510143803 | 16 | 17 | 0.0 | 0.0 | 0.00 | 0.03 | 0.00 | 51 | 1018.1 |
| 20260510141802 | 15 | 351 | 0.0 | 1.6 | 0.00 | 0.03 | 0.00 | 53 | 1018.0 |
| 20260510141302 | 15 | 17 | 0.0 | 4.8 | 0.00 | 0.03 | 0.00 | 53 | 1017.9 |
| 20260510140802 | 15 | 355 | 0.0 | 1.6 | 0.00 | 0.03 | 0.00 | 57 | 1017.7 |
| 20260510140302 | 15 | 276 | 0.0 | 4.8 | 0.00 | 0.03 | 0.00 | 59 | 1017.5 |
| 20260510134803 | 15 | 4 | 1.6 | 12.9 | 0.00 | 0.03 | 0.00 | 53 | 1017.1 |
| 20260510134303 | 15 | 280 | 0.0 | 1.6 | 0.00 | 0.03 | 0.00 | 57 | 1017.0 |
| 20260510133803 | 14 | 24 | 0.0 | 12.9 | 0.00 | 0.03 | 0.00 | 52 | 1017.0 |
| 20260510133302 | 14 | 350 | 0.0 | 16.1 | 0.00 | 0.03 | 0.00 | 55 | 1017.0 |
| 20260510131802 | 13 | 350 | 0.0 | 4.8 | 0.00 | 0.03 | 0.00 | 57 | 1016.8 |
| 20260510131302 | 13 | 343 | 1.6 | 8.0 | 0.00 | 0.03 | 0.00 | 58 | 1016.4 |
| 20260510130802 | 13 | 356 | 0.0 | 0.0 | 0.00 | 0.03 | 0.00 | 60 | 1016.4 |
| 20260510130302 | 13 | 3 | 0.0 | 4.8 | 0.00 | 0.03 | 0.00 | 58 | 1016.2 |
| 20260510124802 | 13 | 299 | 0.0 | 0.0 | 0.00 | 0.03 | 0.00 | 62 | 1016.5 |
| 20260510123802 | 13 | 44 | 0.0 | 1.6 | 0.00 | 0.03 | 0.00 | 63 | 1016.4 |
| 20260510121802 | 13 | 321 | 0.0 | 3.2 | 0.00 | 0.03 | 0.00 | 60 | 1016.2 |
| 20260510121302 | 13 | 25 | 0.0 | 1.6 | 0.00 | 0.03 | 0.00 | 65 | 1016.2 |
| 20260510120802 | 12 | 29 | 0.0 | 1.6 | 0.00 | 0.03 | 0.00 | 62 | 1016.0 |
| 20260510120302 | 12 | 320 | 0.0 | 4.8 | 0.00 | 0.03 | 0.00 | 66 | 1015.7 |
| 20260510114802 | 13 | 333 | 0.0 | 4.8 | 0.00 | 0.03 | 0.00 | 65 | 1015.7 |
| 20260510114302 | 13 | 11 | 0.0 | 4.8 | 0.00 | 0.03 | 0.00 | 62 | 1015.6 |
| 20260510113802 | 13 | 289 | 0.0 | 0.0 | 0.00 | 0.03 | 0.00 | 62 | 1015.4 |
| 20260510113302 | 13 | 3 | 0.0 | 4.8 | 0.00 | 0.03 | 0.00 | 62 | 1015.1 |
| 20260510111302 | 13 | 17 | 0.0 | 1.6 | 0.00 | 0.03 | 0.00 | 62 | 1014.8 |
| 20260510110802 | 13 | 10 | 0.0 | 1.6 | 0.00 | 0.03 | 0.00 | 65 | 1014.8 |
| 20260510110302 | 13 | 8 | 0.0 | 0.0 | 0.00 | 0.03 | 0.00 | 63 | 1014.9 |
| 20260510104802 | 13 | 299 | 0.0 | 1.6 | 0.00 | 0.03 | 0.00 | 62 | 1014.6 |
| 20260510104303 | 13 | 308 | 0.0 | 1.6 | 0.00 | 0.03 | 0.00 | 67 | 1014.5 |
| 20260510103802 | 13 | 21 | 0.0 | 1.6 | 0.00 | 0.03 | 0.00 | 64 | 1014.2 |
| 20260510103302 | 13 | 339 | 0.0 | 4.8 | 0.00 | 0.03 | 0.00 | 61 | 1014.3 |
| 20260510101803 | 13 | 2 | 0.0 | 1.6 | 0.00 | 0.03 | 0.00 | 67 | 1013.9 |
| 20260510101302 | 13 | 333 | 0.0 | 4.8 | 0.00 | 0.03 | 0.00 | 64 | 1013.9 |
| 20260510100802 | 13 | 19 | 0.0 | 0.0 | 0.00 | 0.03 | 0.00 | 65 | 1013.8 |
| 20260510100302 | 13 | 345 | 0.0 | 8.0 | 0.00 | 0.03 | 0.00 | 67 | 1013.8 |
| 20260510094802 | 13 | 334 | 0.0 | 1.6 | 0.00 | 0.03 | 0.00 | 70 | 1013.5 |
| 20260510094302 | 13 | 4 | 0.0 | 0.0 | 0.00 | 0.03 | 0.00 | 74 | 1013.4 |
| 20260510093302 | 13 | 22 | 0.0 | 3.2 | 0.00 | 0.03 | 0.00 | 73 | 1013.0 |
| 20260510091802 | 13 | 25 | 0.0 | 0.0 | 0.00 | 0.03 | 0.00 | 77 | 1013.0 |
| 20260510091302 | 13 | 328 | 0.0 | 0.0 | 0.00 | 0.03 | 0.00 | 77 | 1013.0 |
| 20260510090803 | 13 | 7 | 0.0 | 3.2 | 0.00 | 0.03 | 0.00 | 76 | 1012.8 |
| 20260510090302 | 13 | 37 | 0.0 | 1.6 | 0.00 | 0.03 | 0.00 | 79 | 1012.9 |
| 20260510084302 | 13 | 27 | 0.0 | 0.0 | 0.00 | 0.03 | 0.00 | 85 | 1012.5 |
| 20260510083802 | 13 | 349 | 0.0 | 0.0 | 0.00 | 0.03 | 0.00 | 88 | 1012.4 |
| 20260510083302 | 13 | 8 | 0.0 | 0.0 | 0.00 | 0.03 | 0.00 | 88 | 1012.3 |
| 20260510081802 | 14 | 12 | 0.0 | 0.0 | 0.00 | 0.03 | 0.00 | 88 | 1012.0 |
| 20260510081302 | 14 | 341 | 0.0 | 0.0 | 0.00 | 0.03 | 0.00 | 89 | 1012.0 |
| 20260510080302 | 14 | 336 | 0.0 | 0.0 | 0.00 | 0.03 | 0.00 | 91 | 1012.1 |
| 20260510074302 | 15 | 302 | 0.0 | 0.0 | 0.00 | 0.03 | 0.00 | 92 | 1011.9 |
| 20260510073302 | 15 | 315 | 0.0 | 0.0 | 0.00 | 0.03 | 0.00 | 93 | 1011.8 |
| 20260510071803 | 15 | 316 | 0.0 | 0.0 | 0.00 | 0.03 | 0.00 | 92 | 1011.5 |
| 20260510070803 | 15 | 316 | 0.0 | 0.0 | 0.00 | 0.03 | 0.00 | 92 | 1011.6 |
| 20260510064802 | 15 | 316 | 0.0 | 0.0 | 0.00 | 0.03 | 0.00 | 92 | 1011.6 |
| 20260510064302 | 15 | 316 | 0.0 | 0.0 | 0.00 | 0.03 | 0.00 | 92 | 1011.5 |
| 20260510063803 | 15 | 316 | 0.0 | 0.0 | 0.00 | 0.03 | 0.00 | 92 | 1011.6 |
| 20260510063303 | 15 | 316 | 0.0 | 0.0 | 0.00 | 0.03 | 0.00 | 92 | 1011.4 |
| 20260510061803 | 15 | 316 | 0.0 | 0.0 | 0.00 | 0.03 | 0.00 | 91 | 1011.5 |
| 20260510061302 | 15 | 316 | 0.0 | 0.0 | 0.00 | 0.03 | 0.00 | 91 | 1011.3 |
| 20260510060803 | 16 | 316 | 0.0 | 0.0 | 0.00 | 0.03 | 0.00 | 91 | 1011.4 |
| 20260510054803 | 16 | 316 | 0.0 | 0.0 | 0.00 | 0.03 | 0.00 | 91 | 1011.4 |
| 20260510054303 | 16 | 316 | 0.0 | 0.0 | 0.00 | 0.03 | 0.00 | 91 | 1011.1 |
| 20260510053803 | 16 | 316 | 0.0 | 0.0 | 0.00 | 0.03 | 0.00 | 91 | 1010.9 |
| 20260510053303 | 16 | 5 | 0.0 | 0.0 | 0.00 | 0.03 | 0.00 | 91 | 1010.9 |
| 20260510051803 | 16 | 61 | 0.0 | 0.0 | 0.00 | 0.03 | 0.00 | 91 | 1010.9 |
| 20260510051302 | 16 | 13 | 0.0 | 0.0 | 0.00 | 0.03 | 0.00 | 91 | 1010.9 |
| 20260510050803 | 16 | 10 | 0.0 | 0.0 | 0.00 | 0.03 | 0.00 | 91 | 1010.9 |
| 20260510050303 | 16 | 333 | 0.0 | 0.0 | 0.00 | 0.03 | 0.00 | 91 | 1010.7 |
| 20260510044803 | 16 | 14 | 0.0 | 0.0 | 0.00 | 0.03 | 0.03 | 91 | 1010.3 |
| 20260510044303 | 16 | 29 | 0.0 | 0.0 | 0.00 | 0.03 | 0.03 | 91 | 1010.2 |
| 20260510043803 | 16 | 29 | 0.0 | 0.0 | 0.00 | 0.03 | 0.03 | 91 | 1010.0 |
| 20260510043303 | 16 | 29 | 0.0 | 0.0 | 0.00 | 0.03 | 0.03 | 91 | 1010.0 |
| 20260510041803 | 16 | 355 | 0.0 | 0.0 | 0.03 | 0.03 | 0.03 | 90 | 1009.8 |
| 20260510041303 | 16 | 355 | 0.0 | 0.0 | 0.03 | 0.03 | 0.03 | 90 | 1009.8 |
| 20260510040802 | 16 | 355 | 0.0 | 0.0 | 0.03 | 0.03 | 0.03 | 89 | 1009.8 |
| 20260510040302 | 16 | 355 | 0.0 | 0.0 | 0.03 | 0.03 | 0.03 | 89 | 1009.6 |
| 20260510034302 | 16 | 355 | 0.0 | 0.0 | 0.03 | 0.03 | 0.03 | 87 | 1009.4 |
| 20260510033802 | 16 | 10 | 0.0 | 0.0 | 0.03 | 0.03 | 0.03 | 87 | 1009.3 |
| 20260510033303 | 17 | 12 | 0.0 | 0.0 | 0.03 | 0.03 | 0.03 | 86 | 1009.5 |
| 20260510031802 | 17 | 32 | 0.0 | 0.0 | 0.00 | 0.00 | 0.00 | 81 | 1009.7 |
| 20260510031302 | 17 | 32 | 0.0 | 0.0 | 0.00 | 0.00 | 0.00 | 81 | 1009.3 |
| 20260510030802 | 17 | 32 | 0.0 | 0.0 | 0.00 | 0.00 | 0.00 | 81 | 1009.1 |
| 20260510030302 | 17 | 21 | 0.0 | 0.0 | 0.00 | 0.00 | 0.00 | 81 | 1008.9 |
| 20260510024803 | 17 | 15 | 0.0 | 0.0 | 0.00 | 0.00 | 0.00 | 80 | 1008.7 |
| 20260510023802 | 17 | 358 | 0.0 | 0.0 | 0.00 | 0.03 | 0.00 | 80 | 1008.7 |
| 20260510023302 | 17 | 330 | 0.0 | 8.0 | 0.00 | 0.03 | 0.00 | 79 | 1008.6 |
| 20260510021802 | 18 | 22 | 0.0 | 1.6 | 0.00 | 0.03 | 0.00 | 78 | 1008.3 |
| 20260510021302 | 18 | 342 | 0.0 | 1.6 | 0.00 | 0.03 | 0.00 | 78 | 1008.2 |
| 20260510020802 | 18 | 342 | 0.0 | 9.7 | 0.00 | 0.03 | 0.00 | 77 | 1008.0 |
| 20260510014802 | 20 | 348 | 0.0 | 12.9 | 0.00 | 0.08 | 0.00 | 69 | 1007.8 |
| 20260510014303 | 20 | 261 | 1.6 | 19.3 | 0.00 | 0.13 | 0.00 | 67 | 1008.0 |
| 20260510013803 | 21 | 306 | 0.0 | 4.8 | 0.00 | 0.18 | 0.00 | 68 | 1007.9 |
| 20260510013302 | 20 | 292 | 3.2 | 25.7 | 0.00 | 0.23 | 0.00 | 65 | 1007.6 |
| 20260510010803 | 21 | 166 | 0.0 | 0.0 | 0.00 | 0.46 | 0.00 | 65 | 1005.7 |
| 20260510010302 | 22 | 166 | 0.0 | 0.0 | 0.00 | 0.51 | 0.00 | 65 | 1005.6 |
| 20260510004802 | 22 | 166 | 0.0 | 0.0 | 0.00 | 0.66 | 0.00 | 60 | 1005.7 |
| 20260510003302 | 23 | 166 | 0.0 | 0.0 | 0.00 | 0.84 | 0.00 | 59 | 1005.7 |
| 20260510001302 | 23 | 166 | 0.0 | 0.0 | 0.00 | 1.22 | 0.00 | 57 | 1005.6 |
| 20260510000803 | 23 | 166 | 0.0 | 0.0 | 0.00 | 1.24 | 0.00 | 57 | 1005.6 |
| 20260510000304 | 23 | 166 | 0.0 | 0.0 | 0.00 | 1.24 | 0.00 | 55 | 1005.6 |
| 20260509234802 | 24 | 166 | 0.0 | 0.0 | 0.00 | 1.24 | 0.00 | 54 | 1005.6 |
| 20260509233802 | 25 | 166 | 0.0 | 0.0 | 0.00 | 1.24 | 0.00 | 53 | 1005.6 |
| 20260509233302 | 25 | 166 | 0.0 | 0.0 | 0.00 | 1.24 | 0.00 | 54 | 1005.6 |
| 20260509231802 | 25 | 166 | 0.0 | 0.0 | 0.00 | 1.24 | 0.00 | 51 | 1005.7 |
| 20260509231303 | 25 | 166 | 0.0 | 0.0 | 0.00 | 1.24 | 0.00 | 52 | 1005.7 |
| 20260509230803 | 25 | 166 | 0.0 | 0.0 | 0.00 | 1.24 | 0.00 | 48 | 1005.7 |
| 20260509230303 | 25 | 166 | 0.0 | 0.0 | 0.00 | 1.24 | 0.00 | 50 | 1005.7 |
| 20260509224302 | 25 | 166 | 0.0 | 0.0 | 0.00 | 1.30 | 0.00 | 48 | 1005.7 |
| 20260509223803 | 25 | 166 | 0.0 | 0.0 | 0.00 | 1.30 | 0.00 | 48 | 1005.7 |
| 20260509221803 | 25 | 171 | 0.0 | 3.2 | 0.00 | 1.30 | 0.00 | 48 | 1005.6 |
| 20260509221302 | 26 | 173 | 0.0 | 0.0 | 0.00 | 1.30 | 0.00 | 48 | 1005.6 |
| 20260509220803 | 26 | 171 | 0.0 | 0.0 | 0.00 | 1.30 | 0.00 | 47 | 1005.6 |
| 20260509220302 | 26 | 173 | 0.0 | 0.0 | 0.00 | 1.30 | 0.00 | 43 | 1005.7 |
| 20260509214802 | 26 | 229 | 0.0 | 0.0 | 0.00 | 1.30 | 0.00 | 46 | 1005.8 |
| 20260509213803 | 26 | 231 | 0.0 | 0.0 | 0.00 | 1.32 | 0.00 | 48 | 1005.8 |
| 20260509211803 | 26 | 207 | 0.0 | 0.0 | 0.00 | 1.32 | 0.00 | 44 | 1006.0 |
| 20260509211303 | 26 | 203 | 0.0 | 0.0 | 0.00 | 1.32 | 0.00 | 46 | 1006.1 |
| 20260509210803 | 26 | 199 | 0.0 | 0.0 | 0.00 | 1.32 | 0.00 | 45 | 1006.1 |
| 20260509210303 | 26 | 225 | 0.0 | 0.0 | 0.00 | 1.32 | 0.00 | 49 | 1006.1 |
| 20260509204802 | 26 | 232 | 0.0 | 0.0 | 0.00 | 1.32 | 0.00 | 45 | 1006.3 |
| 20260509204302 | 26 | 232 | 0.0 | 0.0 | 0.00 | 1.32 | 0.00 | 43 | 1006.3 |
| 20260509203802 | 26 | 267 | 0.0 | 0.0 | 0.00 | 1.32 | 0.00 | 45 | 1006.3 |
| 20260509201802 | 26 | 214 | 0.0 | 0.0 | 0.00 | 1.32 | 0.00 | 43 | 1006.4 |
| 20260509201302 | 26 | 311 | 0.0 | 3.2 | 0.00 | 1.32 | 0.00 | 47 | 1006.5 |
| 20260509200803 | 26 | 278 | 0.0 | 0.0 | 0.00 | 1.32 | 0.00 | 46 | 1006.5 |
| 20260509200302 | 26 | 207 | 0.0 | 0.0 | 0.00 | 1.32 | 0.00 | 42 | 1006.4 |
| 20260509194803 | 26 | 246 | 0.0 | 4.8 | 0.00 | 1.32 | 0.00 | 46 | 1006.6 |
| 20260509194302 | 26 | 111 | 0.0 | 0.0 | 0.00 | 1.32 | 0.00 | 47 | 1006.5 |
| 20260509193803 | 26 | 107 | 0.0 | 1.6 | 0.00 | 1.32 | 0.00 | 42 | 1006.6 |
| 20260509193302 | 26 | 189 | 0.0 | 0.0 | 0.00 | 1.32 | 0.00 | 47 | 1006.7 |
| 20260509191803 | 26 | 211 | 0.0 | 0.0 | 0.00 | 1.32 | 0.00 | 47 | 1006.7 |
| 20260509190803 | 26 | 323 | 0.0 | 0.0 | 0.00 | 1.32 | 0.00 | 48 | 1006.8 |
| 20260509190303 | 25 | 311 | 0.0 | 0.0 | 0.00 | 1.32 | 0.00 | 47 | 1006.8 |
| 20260509184303 | 25 | 181 | 0.0 | 0.0 | 0.00 | 1.32 | 0.00 | 51 | 1007.0 |
| 20260509183803 | 25 | 219 | 0.0 | 3.2 | 0.00 | 1.32 | 0.00 | 48 | 1007.1 |
| 20260509183303 | 25 | 252 | 0.0 | 3.2 | 0.00 | 1.32 | 0.00 | 53 | 1007.1 |